• In Czech Republic
  • List of Countries
  • For 7 days
  • Water Temperature
  • Satellite Maps
  • Weather Map
  • Weather Widgets
  • user-avatar
    Login

    Hourly Weather Dangriga

    Today, 15 December, Friday

    Time Temperature Precipitation Wind Pressure Humidity
    00:00 +22°C° 0 mm 3 mps 761 mmHg 84%
    01:00 +22°C° 0.1 mm 3 mps 761 mmHg 87%
    02:00 +22°C° 0.1 mm 4 mps 760 mmHg 90%
    03:00 +23°C° 0.1 mm 4 mps 760 mmHg 92%
    04:00 +23°C° 0.2 mm 4 mps 760 mmHg 94%
    05:00 +23°C° 0.2 mm 4 mps 760 mmHg 96%
    06:00 +24°C° 0 mm 3 mps 760 mmHg 97%
    07:00 +25°C° 0.1 mm 3 mps 760 mmHg 94%
    08:00 +26°C° 0.1 mm 3 mps 761 mmHg 91%
    09:00 +27°C° 0.1 mm 3 mps 761 mmHg 88%
    10:00 +28°C° 0.1 mm 3 mps 761 mmHg 80%
    11:00 +30°C° 0.1 mm 3 mps 760 mmHg 71%
    12:00 +31°C° 0.1 mm 3 mps 760 mmHg 63%
    13:00 +31°C° 0 mm 3 mps 760 mmHg 64%
    14:00 +31°C° 0 mm 3 mps 760 mmHg 64%
    15:00 +31°C° 0 mm 3 mps 759 mmHg 65%
    16:00 +29°C° 0 mm 3 mps 759 mmHg 73%
    17:00 +27°C° 0 mm 3 mps 760 mmHg 81%
    18:00 +26°C° 0 mm 3 mps 760 mmHg 90%
    19:00 +25°C° 0 mm 3 mps 760 mmHg 91%
    20:00 +25°C° 0 mm 4 mps 761 mmHg 93%
    21:00 +25°C° 0 mm 4 mps 761 mmHg 94%
    22:00 +25°C° 0.1 mm 4 mps 761 mmHg 95%
    23:00 +25°C° 0.1 mm 4 mps 761 mmHg 95%

    Tomorrow, 16 December, Saturday

    Time Temperature Precipitation Wind Pressure Humidity
    00:00 +25°C° 0.1 mm 4 mps 761 mmHg 95%
    01:00 +25°C° 0.4 mm 4 mps 761 mmHg 96%
    02:00 +25°C° 0.4 mm 3 mps 761 mmHg 97%
    03:00 +25°C° 0.4 mm 3 mps 761 mmHg 99%
    04:00 +24°C° 0.5 mm 3 mps 761 mmHg 99%
    05:00 +24°C° 0.5 mm 3 mps 761 mmHg 99%
    06:00 +24°C° 0.5 mm 2 mps 761 mmHg 99%
    07:00 +25°C° 0.8 mm 2 mps 761 mmHg 96%
    08:00 +26°C° 0.8 mm 2 mps 762 mmHg 94%
    09:00 +27°C° 0.8 mm 2 mps 762 mmHg 92%
    10:00 +27°C° 1.5 mm 3 mps 762 mmHg 91%
    11:00 +28°C° 1.5 mm 3 mps 762 mmHg 90%
    12:00 +28°C° 1.5 mm 4 mps 762 mmHg 89%
    13:00 +28°C° 0.9 mm 4 mps 761 mmHg 90%
    14:00 +28°C° 0.9 mm 4 mps 760 mmHg 90%
    15:00 +28°C° 0.9 mm 4 mps 760 mmHg 90%
    16:00 +27°C° 0.1 mm 4 mps 760 mmHg 92%
    17:00 +27°C° 0.1 mm 5 mps 760 mmHg 93%
    18:00 +26°C° 0.1 mm 5 mps 760 mmHg 95%
    19:00 +26°C° 0.1 mm 5 mps 761 mmHg 96%
    20:00 +25°C° 0.1 mm 4 mps 761 mmHg 96%
    21:00 +25°C° 0.1 mm 4 mps 762 mmHg 96%
    22:00 +25°C° 0.8 mm 5 mps 762 mmHg 97%
    23:00 +25°C° 0.8 mm 5 mps 762 mmHg 97%

    Day after tomorrow, 17 December, Sunday

    Time Temperature Precipitation Wind Pressure Humidity
    00:00 +25°C° 0.8 mm 5 mps 762 mmHg 97%
    01:00 +25°C° 0.2 mm 5 mps 761 mmHg 97%
    02:00 +25°C° 0.2 mm 5 mps 761 mmHg 98%
    03:00 +25°C° 0.2 mm 4 mps 761 mmHg 98%
    04:00 +25°C° 0.3 mm 4 mps 761 mmHg 98%
    05:00 +25°C° 0.3 mm 4 mps 761 mmHg 98%
    06:00 +25°C° 0.3 mm 5 mps 761 mmHg 97%
    07:00 +26°C° 0.8 mm 5 mps 762 mmHg 95%
    08:00 +27°C° 0.8 mm 5 mps 763 mmHg 93%
    09:00 +28°C° 0.8 mm 5 mps 763 mmHg 91%
    10:00 +28°C° 0.9 mm 5 mps 763 mmHg 90%
    11:00 +28°C° 0.9 mm 5 mps 762 mmHg 89%
    12:00 +29°C° 0.9 mm 5 mps 762 mmHg 88%
    13:00 +29°C° 0.4 mm 5 mps 761 mmHg 87%
    14:00 +29°C° 0.4 mm 5 mps 760 mmHg 87%
    15:00 +29°C° 0.4 mm 5 mps 760 mmHg 86%
    16:00 +28°C° 0.1 mm 5 mps 760 mmHg 89%
    17:00 +27°C° 0.1 mm 5 mps 760 mmHg 92%
    18:00 +26°C° 0.1 mm 4 mps 760 mmHg 95%
    19:00 +26°C° 0.1 mm 4 mps 761 mmHg 95%
    20:00 +26°C° 0.1 mm 5 mps 761 mmHg 96%
    21:00 +26°C° 0.1 mm 5 mps 761 mmHg 97%
    22:00 +26°C° 0.1 mm 5 mps 761 mmHg 97%
    23:00 +26°C° 0.1 mm 5 mps 761 mmHg 98%

    18 December, Monday

    Time Temperature Precipitation Wind Pressure Humidity
    00:00 +26°C° 0.1 mm 5 mps 761 mmHg 98%
    01:00 +26°C° 0.2 mm 5 mps 761 mmHg 98%
    02:00 +26°C° 0.2 mm 5 mps 760 mmHg 98%
    03:00 +26°C° 0.2 mm 5 mps 760 mmHg 98%
    04:00 +26°C° 0.4 mm 5 mps 760 mmHg 98%
    05:00 +26°C° 0.4 mm 5 mps 760 mmHg 98%
    06:00 +26°C° 0.4 mm 5 mps 761 mmHg 98%
    07:00 +26°C° 0.6 mm 5 mps 761 mmHg 97%
    08:00 +27°C° 0.6 mm 5 mps 762 mmHg 95%
    09:00 +28°C° 0.6 mm 5 mps 763 mmHg 94%
    10:00 +28°C° 1 mm 5 mps 762 mmHg 92%
    11:00 +28°C° 1 mm 5 mps 762 mmHg 91%
    12:00 +29°C° 1 mm 5 mps 762 mmHg 90%
    13:00 +29°C° 0.6 mm 5 mps 761 mmHg 88%
    14:00 +29°C° 0.6 mm 5 mps 760 mmHg 87%
    15:00 +29°C° 0.6 mm 5 mps 760 mmHg 86%
    16:00 +28°C° 0.1 mm 5 mps 760 mmHg 89%
    17:00 +27°C° 0.1 mm 5 mps 760 mmHg 92%
    18:00 +26°C° 0.1 mm 5 mps 760 mmHg 95%
    19:00 +26°C° 0.1 mm 5 mps 761 mmHg 96%
    20:00 +26°C° 0.1 mm 5 mps 761 mmHg 97%
    21:00 +26°C° 0.1 mm 5 mps 762 mmHg 98%
    22:00 +26°C° 0.2 mm 5 mps 762 mmHg 98%
    23:00 +26°C° 0.2 mm 5 mps 761 mmHg 98%

    19 December, Tuesday

    Time Temperature Precipitation Wind Pressure Humidity
    00:00 +26°C° 0.2 mm 6 mps 761 mmHg 98%
    01:00 +26°C° 0.2 mm 6 mps 761 mmHg 98%
    02:00 +26°C° 0.2 mm 6 mps 761 mmHg 98%
    03:00 +26°C° 0.2 mm 5 mps 760 mmHg 98%
    04:00 +26°C° 0.1 mm 5 mps 761 mmHg 98%
    05:00 +26°C° 0.1 mm 5 mps 761 mmHg 98%
    06:00 +26°C° 0.1 mm 4 mps 761 mmHg 98%
    07:00 +26°C° 0.2 mm 5 mps 762 mmHg 97%
    08:00 +27°C° 0.2 mm 5 mps 762 mmHg 96%
    09:00 +27°C° 0.2 mm 5 mps 763 mmHg 95%
    10:00 +28°C° 0.6 mm 5 mps 762 mmHg 91%
    11:00 +29°C° 0.6 mm 4 mps 762 mmHg 87%
    12:00 +29°C° 0.6 mm 4 mps 761 mmHg 83%
    13:00 +29°C° 1.3 mm 4 mps 761 mmHg 84%
    14:00 +29°C° 1.3 mm 4 mps 760 mmHg 85%
    15:00 +29°C° 1.3 mm 4 mps 760 mmHg 86%
    16:00 +28°C° 0.8 mm 4 mps 760 mmHg 88%
    17:00 +27°C° 0.8 mm 4 mps 760 mmHg 91%
    18:00 +26°C° 0.8 mm 4 mps 761 mmHg 94%
    19:00 +26°C° 0.8 mm 4 mps 761 mmHg 95%
    20:00 +26°C° 0.8 mm 4 mps 762 mmHg 95%
    21:00 +25°C° 0.8 mm 4 mps 762 mmHg 96%
    22:00 +25°C° 0.3 mm 4 mps 762 mmHg 96%
    23:00 +26°C° 0.3 mm 4 mps 762 mmHg 97%

    20 December, Wednesday

    Time Temperature Precipitation Wind Pressure Humidity
    00:00 +26°C° 0.3 mm 4 mps 762 mmHg 97%
    01:00 +26°C° 0.2 mm 4 mps 762 mmHg 98%
    02:00 +26°C° 0.2 mm 4 mps 761 mmHg 98%
    03:00 +26°C° 0.2 mm 4 mps 761 mmHg 98%
    04:00 +25°C° 0.1 mm 4 mps 761 mmHg 98%
    05:00 +25°C° 0.1 mm 4 mps 762 mmHg 98%
    06:00 +25°C° 0.1 mm 3 mps 762 mmHg 98%
    07:00 +26°C° 0.1 mm 3 mps 763 mmHg 95%
    08:00 +27°C° 0.1 mm 3 mps 763 mmHg 91%
    09:00 +28°C° 0.1 mm 3 mps 764 mmHg 87%
    10:00 +30°C° 0 mm 3 mps 763 mmHg 77%
    11:00 +31°C° 0 mm 3 mps 763 mmHg 66%
    12:00 +33°C° 0 mm 3 mps 762 mmHg 56%
    13:00 +33°C° 0 mm 3 mps 761 mmHg 56%
    14:00 +33°C° 0 mm 3 mps 761 mmHg 55%
    15:00 +33°C° 0 mm 3 mps 760 mmHg 55%
    16:00 +30°C° 0 mm 3 mps 760 mmHg 67%
    17:00 +28°C° 0 mm 2 mps 761 mmHg 78%
    18:00 +25°C° 0 mm 2 mps 761 mmHg 90%
    19:00 +25°C° 0.1 mm 2 mps 761 mmHg 92%
    20:00 +25°C° 0.1 mm 2 mps 762 mmHg 94%
    21:00 +24°C° 0.1 mm 2 mps 762 mmHg 96%
    22:00 +24°C° 0.8 mm 2 mps 762 mmHg 96%
    23:00 +24°C° 0.8 mm 2 mps 761 mmHg 96%
    Show more